This is the latest recevied weather packets stored in our database for station/object 9W2XPF-13. If no packets are shown the sender has not sent any weather packets the latest 10 day(s).
| Time | Temp. | Humidity | Pressure | Rain* | Wind** | Luminosity | Snow |
|---|---|---|---|---|---|---|---|
| 1777011002 | 26.67° C | 95% | 1007.1 hPa | 0.51 mm | - | - | - |
| 1777010882 | 26.67° C | 95% | 1007.1 hPa | 0.51 mm | - | - | - |
| 1777010762 | 26.67° C | 95% | 1007 hPa | 0.51 mm | - | - | - |
| 1777010642 | 26.11° C | 96% | 1007 hPa | 0.51 mm | - | - | - |
| 1777010523 | 26.11° C | 95% | 1007 hPa | 0.51 mm | - | - | - |
| 1777010402 | 26.11° C | 95% | 1007 hPa | 0.51 mm | - | - | - |
| 1777010283 | 26.11° C | 95% | 1006.9 hPa | 1.02 mm | - | - | - |
| 1777010163 | 26.11° C | 95% | 1006.8 hPa | 1.02 mm | - | - | - |
| 1777010042 | 26.11° C | 95% | 1007.1 hPa | 1.27 mm | - | - | - |
| 1777009922 | 26.11° C | 95% | 1006.9 hPa | 2.29 mm | - | - | - |
| 1777009803 | 26.11° C | 95% | 1007.2 hPa | 2.79 mm | - | - | - |
| 1777009682 | 26.11° C | 95% | 1007.2 hPa | 3.81 mm | - | - | - |
| 1777009563 | 26.11° C | 94% | 1007.2 hPa | 4.83 mm | - | - | - |
| 1777009442 | 26.11° C | 94% | 1007.3 hPa | 5.59 mm | - | - | - |
| 1777009322 | 26.11° C | 94% | 1007.3 hPa | 6.1 mm | - | - | - |
| 1777009202 | 26.11° C | 94% | 1007.3 hPa | 6.1 mm | - | - | - |
| 1777009082 | 26.11° C | 94% | 1007.5 hPa | 6.1 mm | - | - | - |
| 1777008962 | 26.11° C | 94% | 1007.3 hPa | 6.1 mm | - | - | - |
| 1777008842 | 26.11° C | 94% | 1007.4 hPa | 6.1 mm | - | - | - |
| 1777008722 | 26.11° C | 94% | 1007.5 hPa | 6.1 mm | - | - | - |
| 1777008602 | 26.11° C | 94% | 1007.3 hPa | 6.1 mm | - | - | - |
| 1777008482 | 26.11° C | 94% | 1007.6 hPa | 6.1 mm | - | - | - |
| 1777008362 | 26.11° C | 94% | 1007.3 hPa | 6.1 mm | - | - | - |
| 1777008242 | 26.11° C | 94% | 1007.4 hPa | 6.1 mm | - | - | - |
| 1777008122 | 26.67° C | 93% | 1007.5 hPa | 6.1 mm | - | - | - |
* Rain latest hour (hover to see other rain measurements)
** Current wind speed in m/s (hover to see current wind gust speed)